CW1053 Weather Reports


Display with metric or nautical units.
time (UTC)temp
F
wind
direction
speed
MPH
gust
MPH
rain 1hr
in
rain 24hr
in
rain mn
in
humidity
%
barometer
mb
20260503204005 61 261 1.0 6.0 0.00 0.00 0.00 29 1011.2
20260503203505 61 236 2.0 6.0 0.00 0.00 0.00 29 1011.3
20260503203009 61 273 2.0 6.0 0.00 0.00 0.00 28 1011.1
20260503202507 60 236 1.0 9.0 0.00 0.00 0.00 31 1011.2
20260503202003 59 255 1.0 9.0 0.00 0.00 0.00 31 1011.1
20260503201505 60 298 2.0 8.0 0.00 0.00 0.00 30 1011.2
20260503201003 60 271 3.0 8.0 0.00 0.00 0.00 29 1011.3
20260503200505 60 216 2.0 5.0 0.00 0.00 0.00 30 1011.1
20260503200008 60 307 1.0 5.0 0.00 0.00 0.00 30 1011.2
20260503195506 60 233 2.0 5.0 0.00 0.00 0.00 30 1011.4
20260503195006 59 216 1.0 4.0 0.00 0.00 0.00 30 1011.3
20260503194514 59 212 1.0 4.0 0.00 0.00 0.00 32 1011.2
20260503194006 59 289 1.0 4.0 0.00 0.00 0.00 33 1011.4
20260503193504 58 252 2.0 4.0 0.00 0.00 0.00 33 1011.6
20260503193015 58 260 1.0 4.0 0.00 0.00 0.00 35 1011.7
20260503192506 58 236 2.0 5.0 0.00 0.00 0.00 32 1011.8
20260503192007 57 277 1.0 10.0 0.00 0.00 0.00 32 1011.9
20260503191514 57 218 4.0 10.0 0.00 0.00 0.00 33 1012.0
20260503191010 57 246 3.0 7.0 0.00 0.00 0.00 31 1011.9
20260503190504 58 251 2.0 9.0 0.00 0.00 0.00 31 1011.9
20260503190010 57 268 2.0 9.0 0.00 0.00 0.00 33 1012.0
20260503185503 57 276 1.0 7.0 0.00 0.00 0.00 36 1012.1
20260503185003 57 241 3.0 7.0 0.00 0.00 0.00 33 1012.0
20260503184516 57 241 3.0 7.0 0.00 0.00 0.00 33 1012.2
20260503184003 56 254 2.0 5.0 0.00 0.00 0.00 35 1012.2
20260503183503 56 231 3.0 5.0 0.00 0.00 0.00 34 1012.3
20260503183018 56 250 2.0 4.0 0.00 0.00 0.00 36 1012.5
20260503182507 56 258 1.0 6.0 0.00 0.00 0.00 37 1012.6
20260503182012 55 222 2.0 6.0 0.00 0.00 0.00 37 1012.6
20260503181514 55 259 2.0 7.0 0.00 0.00 0.00 38 1012.7
20260503181007 55 314 2.0 7.0 0.00 0.00 0.00 37 1012.7
20260503180504 55 218 4.0 7.0 0.00 0.00 0.00 36 1012.5
20260503180014 55 218 3.0 6.0 0.00 0.00 0.00 37 1012.6
20260503175503 55 264 1.0 5.0 0.00 0.00 0.00 39 1012.7
20260503175003 55 236 2.0 9.0 0.00 0.00 0.00 38 1012.7
20260503174512 54 252 2.0 9.0 0.00 0.00 0.00 39 1012.8
20260503174003 54 245 3.0 7.0 0.00 0.00 0.00 38 1012.7
20260503173504 54 244 3.0 6.0 0.00 0.00 0.00 39 1012.8
20260503173014 53 275 2.0 7.0 0.00 0.00 0.00 40 1012.7
20260503172509 53 249 2.0 9.0 0.00 0.00 0.00 38 1012.7
20260503172004 53 273 2.0 9.0 0.00 0.00 0.00 39 1012.8
20260503171514 54 209 2.0 7.0 0.00 0.00 0.00 40 1012.8
20260503171008 54 247 1.0 7.0 0.00 0.00 0.00 39 1012.8
20260503170504 53 268 3.0 5.0 0.00 0.00 0.00 40 1012.8
20260503151007 52 234 2.0 5.0 0.00 0.00 0.00 42 1013.3
20260503150508 52 271 2.0 4.0 0.00 0.00 0.00 42 1013.3
20260503131003 50 298 1.0 6.0 0.00 0.00 0.00 51 1013.2
20260503130506 49 238 2.0 6.0 0.00 0.00 0.00 50 1013.2
20260503110504 45 304 1.0 4.0 0.00 0.00 0.00 54 1012.6
20260503090509 47 297 0.0 3.0 0.00 0.00 0.00 51 1011.0
20260503081520 47 311 0.0 5.0 0.00 0.00 0.00 49 1011.0
20260503081010 47 302 2.0 5.0 0.00 0.00 0.00 48 1010.9
20260503080509 47 290 2.0 4.0 0.00 0.00 0.00 48 1010.9
20260503072504 47 309 0.0 2.0 0.00 0.00 0.00 50 1011.0
20260503072007 48 312 0.0 0.0 0.00 0.00 0.00 51 1010.9
20260503071521 48 312 0.0 0.0 0.00 0.00 0.00 49 1010.9
20260503071004 48 313 0.0 0.0 0.00 0.00 0.00 49 1010.8
20260503070508 48 312 0.0 0.0 0.00 0.00 0.00 48 1010.8
20260503055009 50 305 0.0 3.0 0.00 0.00 0.00 44 1011.1
20260503054534 50 300 0.0 3.0 0.00 0.00 0.00 44 1011.2
20260503054010 50 283 0.0 3.0 0.00 0.00 0.00 44 1011.1
20260503053502 51 299 1.0 4.0 0.00 0.00 0.00 44 1011.1
20260503053009 51 311 2.0 4.0 0.00 0.00 0.00 43 1011.1
20260503052503 51 305 0.0 2.0 0.00 0.00 0.00 44 1011.1
20260503052008 51 304 1.0 2.0 0.00 0.00 0.00 44 1011.2
20260503051513 51 307 0.0 2.0 0.00 0.00 0.00 45 1011.2
20260503051003 51 306 0.0 4.0 0.00 0.00 0.00 44 1011.2
20260503050506 51 312 0.0 4.0 0.00 0.00 0.00 45 1011.4
20260503050028 51 305 1.0 3.0 0.00 0.00 0.00 43 1011.4
20260503045507 51 310 0.0 3.0 0.00 0.00 0.00 45 1011.5
20260503045009 51 308 0.0 2.0 0.00 0.00 0.00 44 1011.5
20260503044523 51 299 0.0 2.0 0.00 0.00 0.00 43 1011.6
20260503044010 51 300 1.0 2.0 0.00 0.00 0.00 43 1011.5
20260503043510 51 306 0.0 2.0 0.00 0.00 0.00 44 1011.6
20260503043030 51 300 1.0 2.0 0.00 0.00 0.00 45 1011.6
20260503042509 50 307 0.0 2.0 0.00 0.00 0.00 47 1011.6
20260503042003 50 318 0.0 0.0 0.00 0.00 0.00 47 1011.5
20260503041510 50 318 0.0 0.0 0.00 0.00 0.00 47 1011.6
20260503041002 50 318 0.0 0.0 0.00 0.00 0.00 48 1011.6
20260503040505 50 290 0.0 0.0 0.00 0.00 0.00 49 1011.6
20260503040017 50 290 0.0 0.0 0.00 0.00 0.00 49 1011.6
20260503035505 50 290 0.0 0.0 0.00 0.00 0.00 49 1011.6
20260503035006 50 290 0.0 0.0 0.00 0.00 0.00 49 1011.7
20260503034522 50 290 0.0 0.0 0.00 0.00 0.00 49 1011.6
20260503034010 51 290 0.0 0.0 0.00 0.00 0.00 46 1011.6
20260503033507 51 290 0.0 0.0 0.00 0.00 0.00 46 1011.5
20260503033025 51 290 0.0 0.0 0.00 0.00 0.00 46 1011.5
20260503032511 51 290 0.0 0.0 0.00 0.00 0.00 46 1011.5
20260503032010 51 290 0.0 0.0 0.00 0.00 0.00 46 1011.5
20260503031528 52 290 0.0 0.0 0.00 0.00 0.00 45 1011.6
20260503031003 52 290 0.0 0.0 0.00 0.00 0.00 45 1011.6
20260503030502 52 290 0.0 0.0 0.00 0.00 0.00 43 1011.5
20260503030012 53 290 0.0 0.0 0.00 0.00 0.00 44 1011.6
20260503025503 53 290 0.0 0.0 0.00 0.00 0.00 42 1011.5
20260503025007 53 290 0.0 0.0 0.00 0.00 0.00 42 1011.5
20260503024518 53 290 0.0 1.0 0.00 0.00 0.00 41 1011.2
20260503024007 53 290 0.0 1.0 0.00 0.00 0.00 41 1011.4
20260503023510 53 297 0.0 0.0 0.00 0.00 0.00 41 1011.5
20260503023022 53 297 0.0 3.0 0.00 0.00 0.00 40 1011.5
20260503022507 53 307 0.0 3.0 0.00 0.00 0.00 40 1011.6
20260503022010 53 307 0.0 3.0 0.00 0.00 0.00 41 1011.5
20260503021525 53 287 0.0 1.0 0.00 0.00 0.00 42 1011.5
20260503021010 53 287 0.0 0.0 0.00 0.00 0.00 42 1011.5
20260503020511 54 287 0.0 1.0 0.00 0.00 0.00 42 1011.4
20260503020028 54 275 0.0 1.0 0.00 0.00 0.00 42 1011.3
20260503015503 54 264 0.0 3.0 0.00 0.00 0.00 42 1011.3
20260503015006 54 311 0.0 3.0 0.00 0.00 0.00 40 1011.3
20260503014514 54 304 0.0 2.0 0.00 0.00 0.00 41 1011.3
20260503014005 54 309 0.0 1.0 0.00 0.00 0.00 41 1011.3
20260503013507 54 309 0.0 3.0 0.00 0.00 0.00 42 1011.3
20260503013023 54 309 0.0 3.0 0.00 0.00 0.00 42 1011.3
20260503012511 54 305 0.0 0.0 0.00 0.00 0.00 43 1011.3
20260503012009 54 280 0.0 0.0 0.00 0.00 0.00 43 1011.3
20260503011526 54 299 0.0 1.0 0.00 0.00 0.00 43 1011.2
20260503011007 55 298 0.0 2.0 0.00 0.00 0.00 42 1011.2
20260503010508 55 298 0.0 2.0 0.00 0.00 0.00 42 1011.2
20260503010032 55 262 0.0 0.0 0.00 0.00 0.00 41 1011.0
20260503005511 55 262 0.0 0.0 0.00 0.00 0.00 41 1010.9
20260503005011 55 262 0.0 1.0 0.00 0.00 0.00 40 1010.9
20260503004513 55 262 0.0 1.0 0.00 0.00 0.00 40 1010.9
20260503004011 56 262 0.0 1.0 0.00 0.00 0.00 40 1010.8
20260503003506 56 262 0.0 0.0 0.00 0.00 0.00 40 1010.9
20260503003016 56 262 0.0 0.0 0.00 0.00 0.00 39 1010.8
20260503002507 56 262 0.0 0.0 0.00 0.00 0.00 39 1010.8
20260503002007 56 262 0.0 0.0 0.00 0.00 0.00 39 1010.7
20260503001524 56 262 0.0 1.0 0.00 0.00 0.00 39 1010.7
20260503001007 56 262 0.0 2.0 0.00 0.00 0.00 39 1010.8
20260503000507 56 261 0.0 3.0 0.00 0.00 0.00 39 1010.7
20260503000026 57 263 1.0 3.0 0.00 0.00 0.00 38 1010.7
20260502235507 57 290 0.0 0.0 0.00 0.00 0.00 40 1010.6
20260502235012 57 290 0.0 0.0 0.00 0.00 0.00 39 1010.7
20260502234532 57 290 0.0 1.0 0.00 0.00 0.00 40 1010.6
20260502234014 57 290 0.0 1.0 0.00 0.00 0.00 38 1010.6
20260502233516 57 291 0.0 1.0 0.00 0.00 0.00 39 1010.6
20260502233018 58 292 0.0 0.0 0.00 0.00 0.00 38 1010.7
20260502232506 58 292 0.0 0.0 0.00 0.00 0.00 39 1010.7
20260502232011 58 292 0.0 0.0 0.00 0.00 0.00 40 1010.7
20260502231519 58 292 0.0 0.0 0.00 0.00 0.00 38 1010.6
20260502231008 58 292 0.0 0.0 0.00 0.00 0.00 39 1010.6
20260502230506 58 307 0.0 0.0 0.00 0.00 0.00 39 1010.6
20260502230029 58 307 0.0 0.0 0.00 0.00 0.00 41 1010.6
20260502225507 58 307 0.0 3.0 0.00 0.00 0.00 39 1010.6
20260502225012 58 307 0.0 3.0 0.00 0.00 0.00 38 1010.4
20260502224526 58 290 0.0 0.0 0.00 0.00 0.00 38 1010.5
20260502224007 58 285 0.0 0.0 0.00 0.00 0.00 39 1010.6
20260502223510 58 306 0.0 0.0 0.00 0.00 0.00 38 1010.4
20260502223028 58 306 0.0 2.0 0.00 0.00 0.00 38 1010.4
20260502222506 59 306 0.0 2.0 0.00 0.00 0.00 38 1010.3
20260502222007 59 308 0.0 2.0 0.00 0.00 0.00 37 1010.3
20260502221517 59 276 0.0 2.0 0.00 0.00 0.00 37 1010.3
20260502221005 59 266 0.0 0.0 0.00 0.00 0.00 39 1010.4
20260502220504 59 266 0.0 2.0 0.00 0.00 0.00 39 1010.5
20260502220004 59 266 0.0 3.0 0.00 0.00 0.00 39 1010.6
20260502215503 59 307 1.0 3.0 0.00 0.00 0.00 37 1010.5
20260502215002 59 264 0.0 2.0 0.00 0.00 0.00 38 1010.6
20260502214507 59 264 1.0 2.0 0.00 0.00 0.00 37 1010.5
20260502214007 59 285 0.0 2.0 0.00 0.00 0.00 36 1010.5
20260502213504 60 269 0.0 2.0 0.00 0.00 0.00 36 1010.4
20260502213010 60 291 0.0 3.0 0.00 0.00 0.00 38 1010.5
20260502212506 60 303 0.0 3.0 0.00 0.00 0.00 36 1010.3
20260502212007 60 270 1.0 4.0 0.00 0.00 0.00 37 1010.3
20260502211517 61 251 2.0 4.0 0.00 0.00 0.00 35 1010.3
20260502211006 61 233 2.0 3.0 0.00 0.00 0.00 35 1010.2
20260502210508 61 274 0.0 2.0 0.00 0.00 0.00 37 1010.1
20260502210021 61 256 1.0 3.0 0.00 0.00 0.00 36 1010.0
20260502205506 60 280 1.0 4.0 0.00 0.00 0.00 37 1009.9
20260502205003 60 264 2.0 4.0 0.00 0.00 0.00 36 1010.0
20260502204507 60 253 2.0 4.0 0.00 0.00 0.00 37 1009.9